Location: Firdgum
(53.2488°N, 5.5615°E)
Time: 19:18:06
(UTC+00:00)

USA 234 - Pass Details

Date: 08 December 2019
Orbit: 1099 x 1108 km, 123.0° (Epoch: 20 January)

Event Time Altitude Azimuth Distance (km) Brightness Sun altitude
Rises 04:25:18 0° 61° (ENE) 3,925 7.1 -27.5°
Reaches altitude 10° 04:27:48 10° 64° (ENE) 2,966 6.3 -27.1°
Maximum altitude 04:34:21 72° 149° (SSE) 1,160 3.4 -26.1°
Enters shadow 04:37:00 39° 223° (SW) 1,605 3.8 -25.7°
